This is the latest recevied weather packets stored in our database for station/object G4KVI. If no packets are shown the sender has not sent any weather packets the latest 10 day(s).
| Time | Temp. | Humidity | Pressure | Rain* | Wind** | Luminosity | Snow |
|---|---|---|---|---|---|---|---|
| 1787673304 | 24.44° C | 45% | 1012.6 hPa | 0 mm | - | 73 W/m² | - |
| 1787673004 | 24.44° C | 45% | 1012.4 hPa | 0 mm | - | 80 W/m² | - |
| 1787672704 | 24.44° C | 45% | 1012.4 hPa | 0 mm | - | 90 W/m² | - |
| 1787672404 | 24.44° C | 45% | 1012.6 hPa | 0 mm | - | 104 W/m² | - |
| 1787672104 | 24.44° C | 45% | 1012.6 hPa | 0 mm | - | 93 W/m² | - |
| 1787671804 | 24.44° C | 45% | 1012.6 hPa | 0 mm | - | 87 W/m² | - |
| 1787671504 | 24.44° C | 46% | 1012.6 hPa | 0 mm | - | 99 W/m² | - |
| 1787671204 | 24.44° C | 45% | 1012.6 hPa | 0 mm | - | 139 W/m² | - |
| 1787670904 | 24.44° C | 45% | 1012.7 hPa | 0 mm | - | 135 W/m² | - |
| 1787670604 | 24.44° C | 45% | 1012.7 hPa | 0 mm | - | 141 W/m² | - |
| 1787670304 | 24.44° C | 45% | 1012.6 hPa | 0 mm | - | 156 W/m² | - |
| 1787670004 | 24.44° C | 44% | 1012.7 hPa | 0 mm | - | 171 W/m² | - |
| 1787669704 | 24.44° C | 44% | 1012.5 hPa | 0 mm | - | 180 W/m² | - |
| 1787669404 | 24.44° C | 44% | 1012.7 hPa | 0 mm | - | 176 W/m² | - |
| 1787669104 | 25° C | 44% | 1012.9 hPa | 0 mm | - | 183 W/m² | - |
| 1787668804 | 25° C | 44% | 1012.7 hPa | 0 mm | - | 191 W/m² | - |
| 1787668504 | 25° C | 44% | 1013 hPa | 0 mm | - | 205 W/m² | - |
| 1787668204 | 24.44° C | 45% | 1012.9 hPa | 0 mm | - | 242 W/m² | - |
| 1787667904 | 24.44° C | 45% | 1013 hPa | 0 mm | - | 165 W/m² | - |
| 1787667604 | 24.44° C | 44% | 1013 hPa | 0 mm | - | 181 W/m² | - |
| 1787667304 | 24.44° C | 45% | 1012.7 hPa | 0 mm | - | 201 W/m² | - |
| 1787667004 | 24.44° C | 46% | 1013.2 hPa | 0 mm | - | 142 W/m² | - |
| 1787666704 | 24.44° C | 46% | 1013.1 hPa | 0 mm | - | 203 W/m² | - |
| 1787666404 | 24.44° C | 46% | 1013.2 hPa | 0 mm | - | 221 W/m² | - |
| 1787666104 | 24.44° C | 46% | 1013.2 hPa | 0 mm | - | 188 W/m² | - |
* Rain latest hour (hover to see other rain measurements)
** Current wind speed in m/s (hover to see current wind gust speed)